Location: Rounton
(54.4000°N, 1.3500°W)
Time: 07:36:43
(UTC+00:00)

Tiros 1 despin weight - Pass Details

Date: 02 December 2021
Orbit: 592 x 641 km, 48.2° (Epoch: 19 January)

Event Time Altitude Azimuth Distance (km) Brightness Sun altitude
Rises 14:49:02 0° 229° (SW) 2,824 ? 4.9°
Reaches altitude 10° 14:51:34 10° 217° (SW) 1,921 ? 4.7°
Maximum altitude 14:55:15 26° 160° (SSE) 1,163 ? 4.4°
Drops below altitude 10° 14:58:56 10° 103° (ESE) 1,924 ? 4.0°
Sets 15:01:29 0° 91° (E) 2,829 ? 3.7°
